Volver al catálogo

STARLINK-1549

ActivoComunicacionesVLEO
NORAD 46074·PAYLOAD·🇺🇸 United States

Lanzado Aug 7, 2020 desde Cape Canaveral Space Force Station

Loading…

Próximos Pases (próximas 24 horas)

TLE

ActualizadoSource: CelesTrak SupGP

Época: Sep 15, 2026, 02:17 UTC

1 46074C 20055AZ  26258.09562500  .00039620  00000+0  99731-3 0  2582
2 46074  53.0460 296.8002 0003612  10.9718  50.4447 15.39320562    17

Sigue STARLINK-1549 en tiempo real con AllMySat

Download on the App Store